Regional Weather Roundup
Issued by NWS

Home | Current Version | Previous Version | Graphics & Text | Print | Product List | Glossary On
Versions: 1 2 3 4 5 6 7 8 9 10 11 12 13 14 15 16 17 18 19 20 21 22 23 24 25 26 27 28 29 30 31 32 33 34 35 36 37 38 39 40 41 42 43 44 45 46 47 48 49 50
000
ASUS45 KCYS 280910
RWRWY

WYOMING REGIONAL WEATHER ROUNDUP
NATIONAL WEATHER SERVICE CHEYENNE WY
300 AM MDT THU MAY 28 2015

NOTE:  "FAIR" INDICATES FEW OR NO CLOUDS BELOW 12,000 FEET
WITH NO SIGNIFICANT WEATHER AND/OR OBSTRUCTIONS TO VISIBILITY.

WYZ001-281000-
YELLOWSTONE NATIONAL PARK

CITY           SKY/WX    TMP DP  RH WIND       PRES   REMARKS
LK YELLOWSTONE   N/A     38  36  92 CALM      30.16S
W YELLOWSTONE  NOT AVBL

$$
WYZ002>013-054>058-071-098>099-281000-
NORTHERN WYOMING

CITY           SKY/WX    TMP DP  RH WIND       PRES   REMARKS
JACKSON        CLOUDY    43  43 100 SW6       30.14S
CODY           FAIR      48  43  81 SW3       30.03S
GREYBULL       CLOUDY    57  47  69 NW7       29.99S
WORLAND        CLOUDY    52  49  89 CALM      30.01F
SHERIDAN       FAIR      48  45  89 CALM      29.98S
BUFFALO        MOCLDY    49  45  86 NW7       30.01S
GILLETTE       FAIR      48  46  93 W7        29.97R
HULETT         RAIN      52  50  93 CALM      29.99F
NEWCASTLE      FAIR      54  46  76 NE6       29.99F

$$
WYZ014>020-022>026-101>103-281000-
CENTRAL WYOMING

CITY           SKY/WX    TMP DP  RH WIND       PRES   REMARKS
BIG PINEY      LGT RAIN  44  40  85 NE7       30.14F
PINEDALE       LGT RAIN  41  39  93 NW10      30.17S
DUBOIS         CLOUDY    45  32  61 NW17      30.10S
LANDER         FAIR      49  37  63 W9        30.03S
RIVERTON       FAIR      49  45  86 N8        30.04S
CASPER         MOCLDY    49  43  80 W6        30.03S
DOUGLAS        FAIR      49  45  86 N6        30.03S

$$
WYZ021-027>030-104>119-281000-
SOUTHERN WYOMING

CITY           SKY/WX    TMP DP  RH WIND       PRES   REMARKS
EVANSTON       FAIR      39  37  92 S7        30.17F WCI  34
KEMMERER       FAIR      41  37  87 N3        30.17F
FORT BRIDGER   SUNNY     43  41  93 SW10      30.19S
ROCK SPRINGS   CLOUDY    45  40  82 SW17      30.14F
DIXON          CLOUDY    50  43  76 SW9       30.17S
RAWLINS        FAIR      47  41  80 SW15      30.11F
SARATOGA       FAIR      45  39  81 CALM      30.15S
LARAMIE        FAIR      41  37  86 SW8       30.14S
CHEYENNE       FAIR      51  49  92 W7        30.09F
TORRINGTON     FAIR      55  53  93 SE5       30.00F
PINE BLUFFS    PTSUNNY   54  50  87 CALM      30.03F

$$



USA.gov is the U.S. government's official web portal to all federal, state and local government web resources and services.